Terminal Aerodrome Forecast
Issued by NWS Blacksburg, VA

Current Version | Previous Version | Text Only | Print | Product List | Glossary Off
Versions: 1 2 3 4 5 6 7 8 9 10 11 12 13 14 15 16 17 18 19 20 21 22 23 24 25 26 27 28 29 30 31 32

000
FTUS41 KRNK 152340
TAFBLF
TAF
KBLF 152340Z 1600/1624 16004KT P6SM BKN200
     FM160500 17005KT P6SM OVC070
     FM160700 17006KT 5SM -SHRA BR OVC015
     FM161500 21008KT 6SM -SHRA OVC015
     FM161800 25009KT P6SM -SHRA OVC025
     FM162000 29010G19KT P6SM OVC025=

USA.gov is the U.S. government's official web portal to all federal, state and local government web resources and services.